[[{"header":{"parameterUnit":"m.s-1","parameterCategory":1,"la1":30.2991,"la2":30.254,"lo1":-89.0895,"lo2":-89.0444,"dx":0.0017,"dy":0.0017,"nx":28,"ny":28,"refTime":"2023-01-07T03:00:00:Z","depth":0,"parameterNumber":2,"parameterNumberName":"U-component_of_WINDS"},"data":[0,0,0,0,0,0,0,0,0,0,0,0,0,0,0,0,0,0,0,0,0,0,0,0,0,0,0,0,0,0,0,0,0,0,0,0,0,0,0,0,0,0,0,0,0,0,0,0,0,0,0,0,0,0,0,0,0,0,-2.2256,-2.2256,0,-2.2316,-2.2317,-2.2318,-2.2267,-2.2265,-2.2263,-2.2261,-2.2327,-2.2331,-2.2335,0,0,0,0,0,0,0,0,0,0,0,0,0,-2.2099,-2.2102,-2.2256,-2.2256,-2.2257,-2.2316,-2.2317,-2.2318,-2.2268,-2.2265,-2.2263,-2.226,-2.2326,-2.233,-2.2335,0,0,0,0,0,0,0,0,0,0,0,0,0,-2.2164,-2.2104,-2.2256,-2.2239,-2.2238,-2.2316,-2.2317,-2.2318,-2.2268,-2.2265,-2.2262,-2.2259,-2.2325,-2.233,-2.2336,-2.2434,0,0,-2.2353,-2.2355,0,0,0,0,0,0,0,0,-2.2161,-2.217,-2.2241,-2.2241,-2.224,-2.2281,-2.2286,-2.2357,-2.2269,-2.2257,-2.2261,-2.2257,-2.2315,-2.2321,-2.2339,-2.2437,-2.2439,-2.2353,-2.2357,-2.2359,-2.2361,0,0,0,0,0,0,0,-2.2156,-2.2167,-2.228,-2.2242,-2.2241,-2.223,-2.2235,-2.2299,-2.2303,-2.2258,-2.2254,-2.2262,-2.2314,-2.2334,-2.2341,-2.244,-2.2353,-2.2358,-2.2361,-2.2364,-2.2619,-2.2622,0,0,0,0,0,0,-2.2153,-2.2164,-2.2278,-2.2282,-2.2191,-2.2235,-2.2241,-2.2271,-2.2302,-2.2304,-2.2265,-2.2259,-2.2326,-2.2334,-2.2343,-2.2458,-2.2359,-2.2364,-2.2367,-2.2615,-2.262,-2.2623,0,0,0,0,0,0,-2.215,-2.2164,-2.2275,-2.2222,-2.2235,-2.2241,-2.2275,-2.2274,-2.2294,-2.2307,-2.2308,-2.2284,-2.2324,-2.2335,-2.241,-2.2459,-2.2367,-2.2372,-2.2611,-2.2617,-2.2621,-2.269,0,0,0,0,0,0,-2.2146,-2.2163,-2.22,-2.2223,-2.2238,-2.2342,-2.2278,-2.2277,-2.2303,-2.2297,-2.2326,-2.2328,-2.2322,-2.2402,-2.2416,-2.2465,-2.2376,-2.2607,-2.2614,-2.262,-2.2683,-2.2696,-2.2708,0,0,0,0,0,-2.214,-2.2218,-2.2202,-2.2216,-2.2284,-2.2345,-2.2353,-2.2344,-2.2307,-2.2345,-2.2353,-2.2327,-2.2452,-2.2411,-2.2426,-2.2477,-2.2604,-2.2612,-2.2619,-2.2677,-2.2694,-2.2708,0,0,0,0,0,0,-2.2202,-2.2221,-2.2203,-2.2291,-2.2316,-2.2336,-2.2383,-2.2362,-2.24,-2.2393,-2.2381,-2.2388,-2.2467,-2.248,-2.2434,-2.2573,-2.2522,-2.2533,-2.2561,-2.2577,-2.2589,-2.2584,-2.2381,0,0,0,0,0,-2.2226,-2.2272,-2.2287,-2.2362,-2.2376,-2.2377,-2.2403,-2.2393,-2.242,-2.2431,-2.2445,-2.2473,-2.2518,-2.2548,-2.2591,-2.2685,-2.269,-2.2728,-2.274,-2.275,-2.276,-2.2808,-2.2825,-2.2649,-2.2649,-2.2648,0,0,-2.2276,-2.2292,-2.2322,-2.2375,-2.2394,-2.2442,-2.2387,-2.2441,-2.2477,-2.244,-2.2511,-2.2523,-2.2553,-2.2637,-2.2675,-2.265,-2.2809,-2.276,-2.2768,-2.2772,-2.2818,-2.2835,-2.285,-2.2654,-2.2653,-2.2652,0,0,-2.2391,-2.2408,-2.2472,-2.2491,-2.2519,-2.2519,-2.2535,-2.2557,-2.2562,-2.2634,-2.2606,-2.2649,-2.2728,-2.275,-2.2771,-2.2893,-2.287,-2.2907,-2.2972,-2.302,-2.3033,-2.3046,-2.3087,-2.3103,-2.2917,-2.2917,-2.2917,0,-2.245,-2.2521,-2.2508,-2.2563,-2.2587,-2.2553,-2.2618,-2.2638,-2.2679,-2.2697,-2.2668,-2.2764,-2.2782,-2.287,-2.29,-2.2919,-2.2936,-2.2903,-2.3032,-2.3044,-2.3056,-2.3095,-2.3111,-2.2921,-2.292,-2.292,-2.292,0,-2.2591,-2.2641,-2.2689,-2.2727,-2.2757,-2.2817,-2.2813,-2.2844,-2.2832,-2.2835,-2.2907,-2.2927,-2.2972,-2.2993,-2.2982,-2.3079,-2.3063,-2.3034,-2.2982,-2.3077,-2.3114,-2.3129,-2.2927,-2.2926,-2.2924,-2.2923,0,0,-2.2748,-2.2776,-2.2794,-2.281,-2.2838,-2.2876,-2.2935,-2.2977,-2.3003,-2.3033,-2.3081,-2.3147,-2.3119,-2.3144,-2.3135,-2.3177,-2.327,-2.3143,-2.3143,-2.3164,-2.3376,-2.3397,-2.3415,-2.3255,-2.3258,-2.326,-2.3373,0,-2.2863,-2.2962,-2.2951,-2.3046,-2.3091,-2.3059,-2.311,-2.3132,-2.3137,-2.3176,-2.3181,-2.3228,-2.3189,-2.3203,-2.3243,-2.325,-2.3312,-2.3242,-2.33,-2.3302,-2.3292,-2.3435,-2.3458,-2.3563,-2.3388,-2.339,-2.3392,0,-2.301,-2.3042,-2.3141,-2.316,-2.3179,-2.3224,-2.3261,-2.3299,-2.3324,-2.3324,-2.335,-2.3334,-2.3392,-2.334,-2.342,-2.3372,-2.3395,-2.3403,-2.3406,-2.3411,-2.3352,-2.3442,-2.3597,-2.3612,-2.3415,-2.3413,-2.3412,0,-2.3113,-2.3181,-2.3248,-2.3263,-2.3288,-2.332,-2.3332,-2.3353,-2.3378,-2.3411,-2.3427,-2.3467,-2.3489,-2.352,-2.3515,-2.3478,-2.3596,-2.3544,-2.3597,-2.3598,-2.3623,-2.3622,-2.3783,-2.364,-2.364,-2.364,-2.3639,0,-2.3242,-2.3303,-2.3294,-2.3336,-2.3403,-2.339,-2.3458,-2.3466,-2.3485,-2.3527,-2.3503,-2.3544,-2.3535,-2.3575,-2.3572,-2.3638,-2.3648,-2.365,-2.3648,-2.3651,-2.3651,-2.3665,-2.3658,-2.3644,-2.3643,-2.3642,-2.3642,0,-2.3367,-2.3364,-2.3435,-2.3451,-2.3456,-2.3505,-2.3519,-2.3558,-2.356,-2.3614,-2.3626,-2.3629,-2.3675,-2.3673,-2.3726,-2.3724,-2.3804,-2.3795,-2.3795,-2.3793,-2.3846,-2.384,-2.4021,-2.4044,-2.3888,-2.3889,-2.3891,0,-2.3449,-2.3495,-2.3515,-2.3541,-2.3554,-2.3597,-2.3622,-2.3611,-2.3638,-2.3668,-2.3704,-2.3747,-2.3781,-2.3857,-2.3864,-2.3904,-2.3894,-2.3955,-2.39,-2.3902,-2.3893,-2.389,-2.3894,-2.3966,-2.3967,-2.3969,-2.397,0,-2.3594,-2.359,-2.3626,-2.3661,-2.3691,-2.3719,-2.3744,-2.3767,-2.3759,-2.3791,-2.3836,-2.3863,-2.3915,-2.3959,-2.3996,-2.4009,-2.3988,-2.3987,-2.4001,-2.4005,-2.4002,-2.4003,-2.3823,-2.3983,-2.3982,-2.3981,-2.398,-2.398,-2.3699,-2.3738,-2.3757,-2.3798,-2.3815,-2.3839,-2.3876,-2.3881,-2.3919,-2.3959,-2.3951,-2.4002,-2.4024,-2.4073,-2.4089,-2.4129,-2.4107,-2.4129,-2.4134,-2.4139,-2.4144,-2.3997,-2.4136,-2.4136,-2.4136,-2.4135,-2.4135,0,-2.3842,-2.3852,-2.389,-2.3924,-2.3956,-2.3932,-2.3959,-2.3987,-2.4032,-2.4054,-2.4087,-2.4139,-2.418,-2.419,-2.423,-2.426,-2.4251,-2.4271,-2.4268,-2.4271,-2.4162,-2.4145,-2.4277,-2.4277,-2.4277,-2.4277,-2.4277,-2.4277,-2.3919,-2.3982,-2.398,-2.4051,-2.4062,-2.411,-2.4127,-2.4149,-2.4166,-2.4224,-2.4258,-2.4263,-2.428,-2.4321,-2.4357,-2.4359,-2.4374,-2.4397,-2.4396,-2.4293,-2.4279,-2.4265,-2.4249,-2.4401,-2.4401,-2.4501,-2.4502,-2.4503]},{"header":{"parameterUnit":"m.s-1","parameterCategory":1,"la1":30.2991,"la2":30.254,"lo1":-89.0895,"lo2":-89.0444,"dx":0.0017,"dy":0.0017,"nx":28,"ny":28,"refTime":"2023-01-07T03:00:00:Z","depth":0,"parameterNumber":3,"parameterNumberName":"V-component_of_WINDS"},"data":[0,0,0,0,0,0,0,0,0,0,0,0,0,0,0,0,0,0,0,0,0,0,0,0,0,0,0,0,0,0,0,0,0,0,0,0,0,0,0,0,0,0,0,0,0,0,0,0,0,0,0,0,0,0,0,0,0,0,0.4882,0.4883,0,0.4999,0.5001,0.5002,0.5034,0.5033,0.5032,0.5032,0.5156,0.516,0.5164,0,0,0,0,0,0,0,0,0,0,0,0,0,0.4688,0.4691,0.4881,0.4883,0.4884,0.4999,0.5001,0.5002,0.5034,0.5033,0.5032,0.5031,0.5155,0.5159,0.5164,0,0,0,0,0,0,0,0,0,0,0,0,0,0.4785,0.4692,0.4881,0.4914,0.4918,0.4999,0.5001,0.5003,0.5034,0.5033,0.5032,0.5031,0.5153,0.5159,0.5165,0.5223,0,0,0.5183,0.5186,0,0,0,0,0,0,0,0,0.478,0.4792,0.4908,0.4912,0.4916,0.5001,0.4978,0.5077,0.5034,0.499,0.5032,0.503,0.5105,0.5115,0.514,0.5229,0.5234,0.5184,0.5187,0.519,0.5191,0,0,0,0,0,0,0,0.4773,0.4788,0.4928,0.4909,0.4915,0.4924,0.4937,0.4997,0.5052,0.4994,0.4996,0.501,0.5108,0.5134,0.5143,0.5236,0.5183,0.5189,0.5192,0.5195,0.5379,0.538,0,0,0,0,0,0,0.476,0.4782,0.4925,0.4932,0.4844,0.4928,0.4942,0.4975,0.5052,0.5062,0.501,0.5011,0.5124,0.5136,0.5148,0.5222,0.519,0.5195,0.5199,0.5378,0.5379,0.5381,0,0,0,0,0,0,0.4756,0.4772,0.492,0.4858,0.4877,0.4933,0.4969,0.4978,0.5004,0.5064,0.5075,0.5027,0.5124,0.5139,0.5204,0.5226,0.5198,0.5203,0.5376,0.5378,0.538,0.5369,0,0,0,0,0,0,0.475,0.4771,0.4793,0.4858,0.488,0.4973,0.497,0.4981,0.5014,0.5015,0.5083,0.5093,0.5124,0.5195,0.521,0.5234,0.5208,0.5374,0.5377,0.5379,0.5368,0.5371,0.5373,0,0,0,0,0,0.4743,0.4786,0.4794,0.4811,0.4908,0.4974,0.4987,0.5022,0.5015,0.5039,0.5077,0.5091,0.5221,0.5201,0.5218,0.5245,0.5373,0.5376,0.5379,0.5367,0.537,0.5373,0,0,0,0,0,0,0.4724,0.4795,0.4804,0.4869,0.4915,0.4979,0.501,0.5024,0.5074,0.5074,0.5115,0.513,0.5192,0.5225,0.5201,0.5305,0.5297,0.5304,0.5282,0.5286,0.5288,0.528,0.5213,0,0,0,0,0,0.4726,0.4773,0.4833,0.4884,0.4907,0.4954,0.4984,0.5006,0.5056,0.5077,0.512,0.5169,0.5221,0.5255,0.5306,0.5372,0.5388,0.5398,0.5401,0.5403,0.5409,0.5447,0.5453,0.5391,0.5391,0.539,0,0,0.4734,0.4778,0.4805,0.4881,0.492,0.4968,0.497,0.5022,0.5058,0.5085,0.5149,0.5182,0.524,0.5305,0.5336,0.5334,0.5429,0.5407,0.5407,0.5413,0.5451,0.5457,0.5462,0.5393,0.5392,0.5392,0,0,0.4772,0.4809,0.4857,0.4895,0.4952,0.4983,0.4994,0.5056,0.5079,0.5143,0.5164,0.5209,0.5297,0.5338,0.537,0.5422,0.5437,0.5437,0.5452,0.5489,0.5494,0.5498,0.5519,0.5525,0.5443,0.5443,0.5443,0,0.4774,0.4847,0.488,0.493,0.4963,0.4987,0.5036,0.5072,0.5144,0.5167,0.5163,0.5274,0.5315,0.5391,0.5403,0.5428,0.5443,0.5431,0.549,0.5495,0.55,0.552,0.5527,0.5443,0.5443,0.5443,0.5443,0,0.4847,0.4897,0.4929,0.4996,0.5033,0.5082,0.5124,0.5157,0.5175,0.5207,0.5273,0.5321,0.5383,0.5402,0.5422,0.5482,0.5479,0.5481,0.5475,0.5505,0.5525,0.5532,0.5442,0.5442,0.5442,0.5442,0,0,0.4879,0.4962,0.4974,0.5005,0.5069,0.5109,0.516,0.5219,0.5247,0.5295,0.534,0.5414,0.5417,0.5453,0.5477,0.5509,0.5549,0.5508,0.551,0.5516,0.562,0.5619,0.5627,0.5558,0.5559,0.556,0.5615,0,0.4927,0.5017,0.5048,0.5123,0.517,0.5193,0.5237,0.5282,0.5313,0.5358,0.5392,0.5445,0.5444,0.5466,0.5498,0.5537,0.5571,0.5533,0.5602,0.5604,0.5589,0.5637,0.5636,0.5686,0.5623,0.5624,0.5625,0,0.4996,0.5044,0.5123,0.5182,0.5203,0.5242,0.5299,0.5341,0.5393,0.5413,0.5452,0.5473,0.5528,0.5516,0.5593,0.5567,0.5596,0.5619,0.5622,0.5632,0.5618,0.565,0.5702,0.5711,0.5637,0.5636,0.5635,0,0.5013,0.5097,0.5156,0.5182,0.5251,0.5278,0.5308,0.5359,0.5392,0.5442,0.5464,0.552,0.5551,0.5594,0.563,0.5617,0.5704,0.5695,0.5724,0.5723,0.5744,0.5742,0.5804,0.5758,0.5758,0.5758,0.5758,0,0.5065,0.5114,0.5165,0.5201,0.5256,0.5291,0.5345,0.5377,0.5421,0.5465,0.5488,0.5529,0.5572,0.5619,0.5647,0.5708,0.5721,0.574,0.5748,0.574,0.5737,0.5762,0.576,0.576,0.576,0.5759,0.5759,0,0.5096,0.5131,0.5197,0.5257,0.5273,0.5311,0.5362,0.5399,0.543,0.5485,0.55,0.5549,0.5605,0.5644,0.5717,0.5736,0.5802,0.5807,0.5784,0.5788,0.5816,0.5814,0.5897,0.5911,0.5854,0.5854,0.5855,0,0.5128,0.5165,0.5228,0.5258,0.5288,0.5337,0.5371,0.5406,0.544,0.5501,0.5531,0.5588,0.5637,0.5726,0.5769,0.5824,0.5833,0.5858,0.5842,0.5833,0.5836,0.5835,0.584,0.5862,0.5862,0.5863,0.5863,0,0.5181,0.5197,0.5244,0.5298,0.5337,0.5381,0.5426,0.545,0.5493,0.5531,0.5588,0.5625,0.5698,0.5756,0.5815,0.5848,0.5864,0.5867,0.5877,0.5871,0.5857,0.5867,0.5794,0.5866,0.5866,0.5865,0.5865,0.5865,0.5215,0.525,0.5299,0.5351,0.5388,0.5429,0.5466,0.5501,0.5549,0.5611,0.5628,0.5688,0.5739,0.582,0.5853,0.5902,0.59,0.5914,0.5918,0.5922,0.5923,0.5847,0.5912,0.5912,0.5912,0.5912,0.5912,0,0.5272,0.5304,0.5351,0.5412,0.5453,0.5461,0.5511,0.5546,0.5598,0.5643,0.5689,0.5755,0.5811,0.5857,0.5914,0.5944,0.5953,0.5958,0.5958,0.5966,0.592,0.5907,0.5951,0.5951,0.5951,0.5951,0.595,0.595,0.5306,0.5366,0.5387,0.5465,0.5498,0.5555,0.5583,0.5622,0.5658,0.573,0.5776,0.5805,0.5851,0.5912,0.5964,0.5976,0.5997,0.6001,0.6016,0.5973,0.5969,0.5965,0.5952,0.6005,0.6005,0.6058,0.6058,0.6058]}]]